#timestamp,LO_Frequency,Hit 
1597129215.8,286046998.3,N
1597129235.7,286046998.7,N
1597129255.5,286046998.2,N
1597129275.3,286046998.3,N
1597129295.1,286046998.7,N
1597129315.9,286047001.1,N
1597129335.7,286046998.1,N
1597129355.5,286047000.5,N
1597129375.4,286046998.4,N
1597129395.2,286046999.0,N
1597129415.0,286047000.6,N
1597129415.9,286047000.6,N
1597129435.8,286047000.6,N
1597129455.6,286046999.9,N
1597129475.4,286046998.4,N
1597129495.3,286046998.5,N
1597129515.1,286046998.4,N
1597129535.8,286046998.5,N
1597129555.7,286046998.3,N
1597129575.5,286046998.3,N
1597129595.3,286046998.4,N
1597129615.2,286047000.3,N
1597129635.9,286047000.4,N
1597129655.7,286047000.6,N
1597129675.6,286047001.1,N
1597129695.4,286046998.6,N
1597129715.2,286046999.3,N
1597129735.1,286046998.2,N
1597129736.0,286046998.2,N
1597129755.8,286046999.4,N
1597129775.6,286046998.3,N
1597129795.5,286046998.2,N
1597129815.3,286046999.2,N
1597129835.1,286046999.0,N
1597129855.9,286046998.8,N
1597129875.7,286046998.3,N
1597129895.5,286046998.3,N
1597129915.4,286046998.5,N
1597129935.2,286046998.7,N
1597129955.0,286046999.3,N
1597129955.9,286046999.3,N
1597129975.8,286046999.2,N
1597129995.6,286046998.4,N
1597130015.4,286046998.9,N
1597130035.2,286046999.2,N
1597130055.1,286046998.4,N
1597130056.0,286046998.4,N
1597130075.8,286046996.9,P
1597130095.7,286047000.3,N
1597130115.5,286047001.0,N
1597130135.3,286047000.8,N
1597130155.2,286047001.0,N
1597130175.9,286046998.2,N
1597130195.7,286046998.3,N
1597130215.6,286047000.7,N
1597130235.4,286046998.6,N
1597130255.2,286046998.2,N
1597130275.1,286046998.6,N
1597130276.0,286046998.6,N
1597130295.8,286047000.8,N
1597130315.6,286047000.8,N
1597130335.5,286046998.5,N
1597130355.3,286046998.8,N
1597130375.1,286046999.4,N
1597130395.8,286047001.1,N
1597130415.7,286047000.8,N
1597130435.5,286046998.2,N
1597130455.3,286046998.4,N
1597130475.2,286046998.9,N
1597130495.0,286046999.5,N
1597130495.9,286046999.5,N
1597130515.7,286046998.4,N
1597130535.6,286046999.4,N
1597130555.4,286046998.2,N
1597130575.2,286046998.9,N
1597130595.1,286047000.9,N
1597130596.0,286047000.9,N
1597130615.8,286046998.7,N
1597130635.6,286046999.2,N
1597130655.5,286046998.9,N
1597130675.3,286047001.2,N
1597130695.1,286046998.9,N
1597130715.9,286046998.9,N
1597130735.7,286046998.5,N
1597130755.5,286046998.4,N
1597130775.4,286046998.6,N
1597130795.2,286046998.9,N
1597130815.0,286046998.3,N
1597130815.9,286046998.3,N
1597130835.8,286046998.8,N
1597130855.6,286046999.3,N
1597130875.4,286046999.6,N
1597130895.3,286046999.6,N
1597130915.1,286046998.8,N
1597130916.0,286046998.8,N
1597130935.8,286046999.4,N
1597130955.7,286046999.1,N
1597130975.5,286046999.1,N
1597130995.3,286046999.1,N
1597131015.2,286046999.4,N
1597131035.9,286046999.2,N
1597131055.7,286046999.4,N
1597131075.6,286046999.2,N
1597131095.4,286046999.4,N
1597131115.2,286046999.3,N
1597131135.1,286046998.8,N
1597131136.0,286046998.8,N
1597131155.8,286046998.2,P
1597131175.6,286047000.5,N
1597131195.5,286046998.6,N
1597131215.3,286047000.9,N
1597131235.1,286047000.6,N
1597131255.9,286047001.2,N
1597131275.7,286047000.5,N
1597131295.5,286047000.9,N
1597131315.4,286046999.7,N
1597131335.2,286047000.0,N
1597131355.0,286047000.9,N
1597131355.9,286047000.9,N
1597131375.8,286047000.9,N
1597131395.6,286046998.2,N
1597131415.4,286046998.1,N
1597131435.3,286047000.1,N
1597131455.1,286047001.1,N
1597131456.0,286047001.1,N
1597131475.8,286047000.7,N
1597131495.7,286047000.4,N
1597131515.5,286047001.0,N
1597131535.3,286046999.7,N
1597131555.2,286046999.7,N
1597131575.9,286047002.4,N
1597131595.7,286047000.6,N
1597131615.5,286047000.6,N
1597131635.4,286046999.9,N
1597131655.2,286047000.1,N
1597131675.0,286047000.8,N
1597131676.0,286047000.8,N
1597131695.8,286047000.6,N
1597131715.6,286047002.7,P
1597131735.5,286047001.0,N
1597131755.3,286047000.9,N
1597131775.1,286047000.9,N
1597131795.9,286047000.4,N
1597131815.7,286046999.8,N
1597131835.5,286047002.5,N
1597131855.4,286046999.8,N
1597131875.2,286047002.3,N
1597131895.0,286046999.7,N
1597131895.9,286046999.7,N
1597131915.8,286047002.2,N
1597131935.6,286047002.3,N
1597131955.4,286047002.4,N
1597131975.3,286047002.8,N
1597131995.1,286047001.3,N
1597131996.0,286047001.3,N
1597132015.8,286047001.7,N
1597132035.7,286047001.7,N
1597132055.5,286047001.4,N
1597132075.3,286047001.6,N
1597132095.2,286047001.7,N
1597132115.9,286047002.2,N
1597132135.7,286047001.8,N
1597132155.5,286047002.8,N
1597132175.4,286047002.4,N
1597132195.2,286047001.6,N
1597132215.0,286047002.3,N
1597132215.9,286047002.3,N
1597132235.8,286047003.9,P
1597132255.6,286047002.4,N
1597132275.5,286047000.3,N
1597132295.3,286047000.5,N
1597132315.1,286047001.0,N
1597132335.9,286047000.2,N
1597132355.7,286047001.0,N
1597132375.5,286047000.4,N
1597132395.3,286047002.3,N
1597132415.2,286047000.0,N
1597132435.0,286047000.7,N
1597132435.9,286047000.7,N
1597132455.7,286047000.1,N
1597132475.6,286047000.0,N
1597132495.4,286047002.4,N
1597132515.2,286047000.4,N
1597132535.1,286047002.5,N
1597132536.0,286047002.5,N
1597132555.8,286047002.6,N
1597132575.6,286047002.8,N
1597132595.5,286046999.9,N
1597132615.3,286047000.9,N
1597132635.1,286047000.3,N
1597132655.9,286047002.6,N
1597132675.7,286046999.8,N
1597132695.5,286046999.8,N
1597132715.4,286047000.5,N
1597132735.2,286047002.1,N
1597132755.0,286047002.8,N
1597132755.9,286047002.8,N
1597132775.8,286047002.8,N
1597132795.6,286047000.6,N
